Location: ?????????
(41.2286°N, 23.0068°E)
Time: 09:44:05
(UTC+00:00)

Cosmos 1269 Rocket - Pass Details

Date: 08 November 2025
Orbit: 768 x 775 km, 74.1° (Epoch: 05 December)

Event Time Altitude Azimuth Distance (km) Brightness Sun altitude
Exits shadow 03:28:57 14° 333° (NNW) 2,036 5.9 -18.8°
Maximum altitude 03:33:24 65° 254° (WSW) 852 3.9 -18.0°
Drops below altitude 10° 03:38:36 10° 174° (S) 2,314 6.7 -17.0°
Sets 03:40:59 0° 171° (S) 3,238 7.5 -16.6°
